Cyclone, PA

2:00 AM EST on February 07, 2016 (GMT -0500)
Bradford Regional

Weather History for KBFD - September, 2014

Change the Weather History Date:

Tuesday, September 2, 2014

  Actual Average Record
Temperature  
Mean Temperature 68 °F 61 °F  
Max Temperature 77 °F 73 °F 85 °F (1999)
Min Temperature 59 °F 50 °F 35 °F (1970)
Degree Days  
Heating Degree Days 0 2  
Month to date heating degree days 0 4  
Since 1 July heating degree days 184 157  
Cooling Degree Days 3 1  
Month to date cooling degree days 11 2  
Year to date cooling degree days 181 179  
Growing Degree Days 17 (Base 50)    
Moisture  
Dew Point 64 °F    
Average Humidity 79    
Maximum Humidity 97    
Minimum Humidity 60    
Precipitation  
Precipitation 0.73 in 0.13 in 1.79 in (2006)
Month to date precipitation 0.73 0.26  
Year to date precipitation 32.07 30.21  
Sea Level Pressure  
Sea Level Pressure 29.92 in    
Wind  
Wind Speed 7 mph (West)    
Max Wind Speed 21 mph    
Max Gust Speed 26 mph    
Visibility 7 miles    
Events Fog , Rain , Thunderstorm    
T = Trace of Precipitation, MM = Missing Value Source: NWS Daily Summary

Daily Weather History Graph

Daily Weather History Graph

Search for Another Location

Airport or City:

Trip Planner

Search our weather history database for the weather conditions in past years. The results will help you decide how hot, cold, wet, or windy it might be!

Date:

Astronomy

Sep. 02, 2014 Rise Set
Actual Time 6:41 AM EDT 7:46 PM EDT
Civil Twilight 6:12 AM EDT 8:14 PM EDT
Nautical Twilight 5:38 AM EDT 8:48 PM EDT
Astronomical Twilight 5:02 AM EDT 9:24 PM EDT
Moon 2:30 PM EDT (9/2) No Moon Set
Length of Visible Light 14h 01m
Length of Day
13h 04m
First Quarter, 52% of the Moon is Illuminated
Sep 2
First Quarter
Sep 8
Full
Sep 15
Last Quarter
Sep 24
New
Oct 1
First Quarter

Hourly Weather History & Observations

Time (EDT) Temp. Dew Point Humidity Pressure Visibility Wind Dir Wind Speed Gust Speed Precip Events Conditions
12:02 AM 70.0 °F 66.9 °F 90% 29.99 in 8.0 mi Variable 3.5 mph - N/A   Mostly Cloudy
12:39 AM 71.1 °F 66.9 °F 87% 29.97 in 8.0 mi Variable 4.6 mph - N/A   Overcast
12:53 AM 71.1 °F 66.9 °F 87% 29.92 in 8.0 mi SSW 9.2 mph - N/A   Overcast
1:53 AM 71.1 °F 66.9 °F 87% 29.91 in 8.0 mi SW 6.9 mph - N/A   Overcast
2:14 AM 70.0 °F 66.9 °F 90% 29.97 in 4.0 mi WSW 6.9 mph - 0.01 in Rain Light Rain
2:53 AM 70.0 °F 68.0 °F 93% 29.91 in 7.0 mi SW 8.1 mph - 0.01 in   Overcast
3:53 AM 70.0 °F 68.0 °F 93% 29.91 in 6.0 mi West 8.1 mph - 0.02 in Rain Light Rain
4:53 AM 70.0 °F 68.0 °F 93% 29.91 in 6.0 mi Variable 4.6 mph - 0.00 in   Overcast
4:56 AM 70.0 °F 68.0 °F 93% 29.96 in 7.0 mi Variable 5.8 mph - N/A   Overcast
5:53 AM 70.0 °F 66.9 °F 90% 29.92 in 7.0 mi Variable 6.9 mph - N/A   Overcast
6:06 AM 70.0 °F 66.9 °F 90% 29.97 in 7.0 mi Variable 5.8 mph - N/A   Overcast
6:21 AM 70.0 °F 66.9 °F 90% 29.96 in 7.0 mi WSW 5.8 mph - N/A   Overcast
6:53 AM 70.0 °F 66.9 °F 90% 29.92 in 6.0 mi WSW 8.1 mph - N/A   Overcast
7:53 AM 70.0 °F 66.9 °F 90% 29.94 in 6.0 mi West 5.8 mph - N/A   Overcast
8:53 AM 71.1 °F 66.9 °F 87% 29.94 in 7.0 mi WSW 4.6 mph - N/A   Overcast
9:13 AM 72.0 °F 66.0 °F 81% 29.98 in 8.0 mi Variable 5.8 mph - N/A   Overcast
9:25 AM 72.0 °F 66.0 °F 81% 29.98 in 9.0 mi West 6.9 mph - N/A   Overcast
9:37 AM 72.0 °F 64.9 °F 78% 29.99 in 10.0 mi Variable 6.9 mph - N/A   Overcast
9:53 AM 73.0 °F 66.0 °F 79% 29.93 in 10.0 mi Variable 3.5 mph - N/A   Mostly Cloudy
10:53 AM 75.0 °F 64.9 °F 71% 29.93 in 10.0 mi SW 10.4 mph - N/A   Mostly Cloudy
11:14 AM 75.9 °F 64.0 °F 67% 29.98 in 10.0 mi SW 8.1 mph - N/A   Mostly Cloudy
11:53 AM 75.0 °F 63.0 °F 66% 29.92 in 10.0 mi West 10.4 mph - N/A   Mostly Cloudy
12:53 PM 75.0 °F 61.0 °F 62% 29.91 in 10.0 mi WSW 5.8 mph - N/A   Scattered Clouds
1:53 PM 73.9 °F 63.0 °F 68% 29.88 in 10.0 mi SW 4.6 mph - N/A   Mostly Cloudy
2:53 PM 75.0 °F 64.0 °F 69% 29.86 in 10.0 mi Variable 5.8 mph - 0.00 in   Scattered Clouds
3:53 PM 73.9 °F 64.0 °F 71% 29.83 in 10.0 mi South 9.2 mph - N/A   Mostly Cloudy
4:27 PM 71.1 °F 66.0 °F 84% 29.87 in 2.0 mi SSW 4.6 mph - 0.04 in Rain Rain
4:39 PM 70.0 °F 66.9 °F 90% 29.87 in 1.5 mi Calm Calm - 0.08 in Rain Rain
4:49 PM 69.8 °F 66.2 °F 88% 29.87 in 3.0 mi WNW 6.9 mph - 0.09 in Rain Light Rain
4:53 PM 69.1 °F 66.9 °F 93% 29.83 in 4.0 mi NW 9.2 mph - 0.10 in Rain Light Rain
4:58 PM 69.1 °F 66.9 °F 93% 29.89 in 2.5 mi NW 13.8 mph - 0.01 in Rain Rain
5:03 PM 69.1 °F 66.9 °F 93% 29.90 in 1.5 mi WNW 17.3 mph - 0.08 in Rain Heavy Rain
5:10 PM 66.9 °F 64.9 °F 93% 29.90 in 1.0 mi NW 17.3 mph - 0.16 in Rain , Thunderstorm Heavy Rain
5:13 PM 66.9 °F 64.0 °F 90% 29.91 in 0.8 mi NW 18.4 mph 25.3 mph 0.26 in Rain , Thunderstorm Heavy Thunderstorms and Rain
5:18 PM 66.0 °F 64.0 °F 93% 29.90 in 0.2 mi NW 19.6 mph 25.3 mph 0.52 in Fog , Rain , Thunderstorm Heavy Thunderstorms and Rain
5:27 PM 66.0 °F 63.0 °F 90% 29.90 in 1.0 mi NNW 17.3 mph 24.2 mph 0.58 in Rain , Thunderstorm Heavy Thunderstorms and Rain
5:30 PM 64.9 °F 63.0 °F 93% 29.90 in 2.0 mi NW 15.0 mph 24.2 mph 0.58 in Rain , Thunderstorm Rain
5:39 PM 66.0 °F 63.0 °F 90% 29.91 in 4.0 mi NW 11.5 mph - 0.60 in Rain , Thunderstorm Rain
5:53 PM 66.0 °F 63.0 °F 90% 29.87 in 10.0 mi WNW 9.2 mph - 0.60 in   Overcast
6:06 PM 66.0 °F 63.0 °F 90% 29.92 in 10.0 mi WNW 11.5 mph - N/A   Overcast
6:21 PM 66.0 °F 63.0 °F 90% 29.92 in 10.0 mi WNW 11.5 mph - N/A   Overcast
6:53 PM 66.0 °F 63.0 °F 90% 29.87 in 10.0 mi West 3.5 mph - N/A   Partly Cloudy
7:53 PM 64.9 °F 63.0 °F 93% 29.90 in 10.0 mi West 9.2 mph - N/A   Scattered Clouds
8:35 PM 64.9 °F 62.1 °F 90% 29.95 in 10.0 mi WNW 8.1 mph - N/A   Mostly Cloudy
8:53 PM 64.9 °F 62.1 °F 90% 29.92 in 10.0 mi WNW 6.9 mph - N/A   Overcast
9:26 PM 64.0 °F 61.0 °F 90% 29.97 in 10.0 mi NW 6.9 mph - N/A   Overcast
9:53 PM 64.0 °F 61.0 °F 90% 29.93 in 10.0 mi WNW 8.1 mph - N/A   Mostly Cloudy
10:01 PM 63.0 °F 61.0 °F 93% 29.97 in 10.0 mi WNW 5.8 mph - N/A   Scattered Clouds
10:53 PM 62.1 °F 59.0 °F 90% 29.95 in 10.0 mi West 3.5 mph - N/A   Clear
11:36 PM 59.0 °F 57.0 °F 93% 30.00 in 3.0 mi Calm Calm - N/A   Mostly Cloudy
11:50 PM 60.8 °F 57.2 °F 88% 30.00 in 9.0 mi Calm Calm - N/A   Overcast
11:53 PM 60.1 °F 57.9 °F 93% 29.96 in 9.0 mi Calm Calm - N/A   Overcast